Regional Weather Roundup
Issued by NWS Charleston, SC

Current Version | Previous Version | Graphics & Text | Print | Product List | Glossary On
Versions: 1 2 3 4 5 6 7 8 9 10 11 12 13 14 15 16 17 18 19 20 21 22 23 24 25 26 27 28 29 30 31 32 33 34 35 36 37 38 39 40 41 42 43 44 45 46 47 48 49 50
000 ASUS42 KCHS 201725 RWRCHS REGIONAL WEATHER ROUNDUP NATIONAL WEATHER SERVICE CHARLESTON SC 100 PM EDT WED AUG 20 2014 NOTE: "FAIR" INDICATES FEW OR NO CLOUDS BELOW 12,000 FEET WITH NO SIGNIFICANT WEATHER AND/OR OBSTRUCTIONS TO VISIBILITY. NOT ALL STATIONS ARE QUALITY CONTROLLED BY THE NATIONAL WEATHER SERVICE. USE DATA WITH CAUTION...ESPECIALLY DEWPOINT OBSERVATIONS. SCZ027-030-031-034>040-042>050-201800- ...SOUTH CAROLINA... CITY SKY/WX TMP DP RH WIND PRES REMARKS N CHARLESTON MOSUNNY 92 72 51 VRB6 29.99F HX 99 WATERFRONT PRK N/A 88 N/A N/A SW8G15 N/A FORT JOHNSON NOT AVBL MOUNT PLEASANT FAIR 91 73 55 W9 29.99S HX 100 JOHNS ISLAND SUNNY 91 75 59 W9 29.99F HX 102 PINOPOLIS N/A 88 75 66 N3 29.92F HX 97 MONCKS CORNER N/A 90 79 70 SW5 30.00R HX 105 SUMMERVILLE FAIR 88 75 66 W7 30.00F HX 97 BEAUFORT MCAS MOSUNNY N/A N/A N/A NW12 30.00F BEAUFORT ARPT FAIR 91 75 59 SW13 30.00S HX 102 HILTON HEAD IS SUNNY 90 75 62 SW10 30.02F HX 100 GEORGETOWN NOT AVBL WALTERBORO MOSUNNY 91 64 40 W10G16 30.01S HX 93 ORANGEBURG SUNNY 89 71 55 N8 30.01F HX 95 BARNWELL CLOUDY 91 72 52 W7 30.02S HX 98 AIKEN FAIR 90 72 55 W5 30.05F HX 96 MANNING FAIR 90 75 62 CALM 30.00S HX 100 KINGSTREE NOT AVBL COLUMBIA MOSUNNY 92 70 48 VRB3 30.00F HX 97 SUMTER MOSUNNY 90 74 59 W5 29.99F HX 99 FLORENCE PTSUNNY 89 72 56 W6 29.99F HX 96 MYRTLE BEACH MOSUNNY 88 73 62 S9 29.99F HX 96 N MYRTLE BEACH MOSUNNY 85 75 72 S8 29.99S HX 93 $$ GAZ063-065-086>088-099>101-113>116-118-119-134-136>141-150-201800- ...GEORGIA... CITY SKY/WX TMP DP RH WIND PRES REMARKS SAVANNAH ARPT PTSUNNY 91 74 57 W9 30.02F HX 100 HUNTER AAF MOSUNNY 91 75 59 W15 30.00F HX 101 FORT STEWART MOSUNNY 91 73 54 W6 30.02F HX 99 STATESBORO NOT AVBL SYLVANIA MOSUNNY 91 76 61 W8 30.03F HX 104 CLAXTON FAIR 91 77 62 NW7 30.02F HX 105 THOMSON MOSUNNY 92 77 59 CALM 30.07F HX 105 AUGUSTA-BUSH MOSUNNY 91 69 48 VRB7 30.01S HX 96 AUGUSTA-DANIEL SUNNY 92 68 45 VRB5 30.03F HX 96 SWAINSBORO PTSUNNY 93 75 55 NW7 30.04S HX 104 VIDALIA N/A 91 73 55 W6 30.04F HX 100 ALMA SUNNY 88 74 63 VRB3 30.05F HX 96 WAYCROSS MOSUNNY 93 78 60 NW7 30.05F HX 107 JESUP N/A 91 77 62 W9 30.04F HX 105 BRUNSWICK MOSUNNY 91 70 49 W7 30.04F HX 97 SAINT SIMONS SUNNY 91 72 53 VRB7 30.04F HX 98 $$ SCZ027-028-034-036>038-045-046-048>050-GAZ119-141-201800- ...LAKE AND SUPPLEMENTAL COASTAL OBSERVATIONS... STATION/POSITION TIME TEMP WIND PRES WAVE SWELL AIR SEA DIR/SP/G HT/PER HT/PER/DIR (UTC) (F) (DEG/KT/KT) (MB) (FT/S) (FT/S/D) UPR LAKE MARION NOT AVBL WINYAH BAY 1700 84 120/ 9 1015.0S LAKE MURRAY 1600 83 210/ 5/ 5 1015.6F ACE BASIN NERRS 1700 89 260/ 3 1016.0S FORT PULASKI 1700 88 260/ 8/ 10 1016.6F SAPELO ISLAND 1700 91 280/ 7 1018.0S $$ ANZ835-935-AMZ111-154-330-350-352-354-374-450-454-472-201800- ...C-MAN AND BUOY OBSERVATIONS... STATION/POSITION TIME TEMP WIND PRES WAVE SWELL AIR SEA DIR/SP/G HT/PER HT/PER/DIR (UTC) (F) (DEG/KT/KT) (MB) (FT/S) (FT/S/D) FOLLY BEACH CMAN 1700 84 200/ 10/ 12 1016.2F BUOY 41004 1700 81 83 230/ 8/ 10 1015.7S 4/ 6 3/ 6 BUOY 41008 1700 83 85 260/ 10/ 12 1017.2F 2/ 3 2/110/ 8 5E ST. MARYS GA 1700 83 N/A 1/ 8 FRYING PAN BUOY NOT AVBL BUOY 41025 NOT AVBL CAPE LOOKOUT NC 1700 81 90/ 5/ 6 1015.1S BUOY 41002 1650 80 81 300/ 12/ 14 1017.7R 6/ 7 5/270/ 7 BUOY 41010 1700 85 86 230/ 8/ 10 1019.0F 2/ 5 2/260/ 5 BUOY 41012 NOT AVBL ST AUGUSTINE FL 1700 90 250/ 11/ 14 1019.0F CAPERS NEARSHORE 1600 83 210/ 10/ 10 N/A FRIPP NEARSHORE NOT AVBL $$

USA.gov is the U.S. government's official web portal to all federal, state and local government web resources and services.